RH
6 6 6 7 10 12 15 16 16 19 26 26 28 20 17 20 18 17 16 12 9 8 8 8 8 9 9 9 9 12 15 17 41 55 100 90 85 76 84 100 99 93 68
5 5 6 6 6 8 14 18 21 20 21 21 23 21 19 16 14 13 13 10 9 8 8 8 8 8 7 8 9 8 11 13 16 20 44 68 94 100 100 94 96 91 82
7 5 5 6 7 10 14 18 19 18 18 19 19 16 11 10 9 9 9 9 9 8 7 7 8 7 7 7 7 8 8 9 10 14 19 30 98 100 100 97 94 94 99
8 7 6 7 8 9 10 12 16 18 20 22 21 22 17 12 9 8 8 8 9 9 8 8 8 9 8 7 8 8 7 8 8 10 13 19 28 84 98 100 99 79 81
8 8 7 7 9 11 10 10 13 15 17 18 17 17 15 12 13 11 10 9 8 7 6 7 7 8 8 7 7 9 7 7 8 7 9 12 23 44 89 93 100 100 85
11 10 9 9 9 9 10 12 12 13 14 16 18 21 20 15 11 8 8 7 8 7 6 6 6 6 6 7 7 7 7 7 6 7 7 8 16 40 64 95 100 95 100
14 15 15 12 10 10 13 15 16 18 18 16 13 12 12 11 9 7 6 6 5 5 4 4 4 4 4 5 6 6 6 6 7 6 6 6 8 12 53 83 100 81 100
25 20 16 17 17 16 16 15 14 14 14 13 13 12 12 10 9 8 7 6 5 4 4 4 4 4 4 4 4 4 4 5 6 7 6 6 6 8 16 35 83 98 100
19 18 24 24 18 16 21 21 17 15 14 13 12 11 10 9 7 7 6 6 5 5 4 4 4 4 4 3 3 3 3 3 3 4 6 6 6 6 9 17 38 56 91
45 24 19 17 23 23 13 10 12 21 29 24 18 16 14 12 11 10 8 6 5 5 4 4 3 3 3 3 3 3 2 3 3 3 4 4 5 7 7 9 19 51 77
52 54 39 26 22 18 27 23 20 19 15 17 19 14 10 10 11 13 9 8 7 6 4 4 3 3 3 3 2 2 2 2 2 2 2 3 4 5 6 6 10 21 49
62 62 58 51 28 21 14 16 24 22 16 15 14 16 16 16 13 11 9 8 8 6 4 4 4 4 3 3 3 2 2 2 2 2 2 3 3 4 5 5 8 11 26
78 76 61 48 50 32 24 18 13 16 21 20 15 14 15 12 9 7 7 7 6 5 4 4 4 4 3 3 3 3 3 2 2 2 2 2 2 3 4 5 6 9 15
88 85 73 70 55 48 34 27 21 14 12 16 20 17 14 13 11 10 9 9 7 5 4 4 4 4 4 3 2 3 2 2 2 2 2 2 3 3 4 5 6 6 10
85 86 88 74 72 62 47 35 25 24 15 11 14 17 16 14 12 13 13 10 11 7 6 4 5 5 4 4 3 3 2 2 2 2 2 3 2 3 4 5 6 6 8
86 83 75 85 88 81 71 45 35 23 24 16 10 11 17 19 17 16 12 11 12 9 9 7 7 8 6 5 4 3 2 2 2 2 2 3 3 3 4 5 5 6 8
95 100 99 83 84 95 92 76 44 30 22 22 19 13 11 15 20 21 18 17 16 15 14 12 11 10 10 7 5 4 3 4 3 2 4 4 5 4 4 4 5 7 9
97 100 100 91 89 93 99 86 76 43 35 24 23 21 15 12 12 20 22 22 21 21 19 18 15 16 17 15 12 12 6 12 8 6 7 8 7 6 6 6 7 8 10
91 100 98 98 96 75 80 88 75 68 44 41 32 27 24 19 12 12 17 22 23 24 27 25 21 19 23 22 21 30 23 15 19 12 12 13 14 12 10 9 10 10 12
85 78 99 94 97 90 66 87 76 79 52 55 56 38 30 23 18 14 12 14 19 23 28 28 27 26 26 34 21 23 41 40 31 20 22 21 22 21 18 17 17 17 13
99 100 97 99 87 75 62 86 94 59 69 51 58 60 47 34 25 21 17 14 12 12 21 28 29 30 28 34 36 38 38 60 58 42 40 48 48 47 50 46 32 33 25
100 90 82 97 79 76 55 82 79 49 72 64 52 74 72 55 39 30 24 20 16 12 12 12 23 29 34 35 36 42 44 47 66 75 65 55 58 68 74 80 75 65 56
69 56 51 59 60 65 41 73 57 41 63 63 56 60 86 86 57 42 36 26 24 21 16 12 11 14 23 31 38 43 44 54 61 71 75 79 89 80 81 81 93 94 81
38 48 37 36 42 39 24 66 46 38 49 66 45 55 66 91 88 64 48 42 31 28 27 23 16 13 14 17 25 36 42 52 71 80 78 80 80 88 88 86 89 89 90
37 22 18 22 21 18 21 54 36 30 29 54 39 47 51 72 100 80 69 54 45 36 31 30 30 27 21 16 15 18 24 37 47 60 70 84 88 96 98 98 92 91 91
26 13 12 12 12 12 19 36 26 24 19 41 36 33 43 53 94 97 90 84 71 51 44 38 33 29 28 26 24 21 19 19 20 22 26 34 44 51 57 66 71 82 84
Wind_Speed
59 61 67 78 80 80 76 76 74 73 74 73 72 74 76 76 77 78 78 77 76 75 73 74 76 77 76 76 73 71 71 68 66 59 58 55 54 50 47 48 46 47 46
52 51 57 65 70 73 77 77 78 77 76 77 77 78 78 79 80 82 80 78 79 76 75 74 75 75 75 77 79 77 74 71 68 68 65 57 55 50 53 54 50 49 47
37 44 46 51 62 71 75 78 78 78 79 79 80 81 83 82 81 81 81 80 79 78 76 77 76 76 74 71 75 79 80 78 76 73 70 63 58 59 57 54 54 52 48
26 34 38 42 53 62 69 75 78 80 80 81 83 84 84 85 83 82 78 80 81 82 80 77 76 77 76 77 75 75 79 82 78 78 73 68 65 64 60 57 60 60 51
18 25 31 35 39 50 57 65 72 78 80 83 86 87 85 83 82 83 82 81 82 81 78 78 78 77 77 79 75 76 76 81 83 80 79 76 72 69 65 59 57 62 60
8 12 18 25 33 39 44 52 58 64 70 74 76 77 82 84 85 84 83 84 84 82 83 81 79 78 77 79 81 80 79 80 82 83 81 81 77 72 74 65 63 71 66
18 13 11 19 25 31 34 38 42 48 54 60 65 69 72 75 77 76 76 76 76 76 76 76 76 75 76 78 80 81 80 80 81 82 84 85 84 80 74 73 77 73 67
32 24 12 6 8 18 26 33 39 44 47 49 51 53 55 58 58 59 60 62 64 64 65 66 68 71 73 74 78 81 79 79 81 84 84 83 86 85 82 83 74 75 74
40 34 27 19 14 12 14 19 23 26 30 34 37 38 39 42 43 45 48 50 53 55 59 61 62 65 69 70 72 75 79 83 83 84 88 86 83 87 87 84 84 82 82
53 44 36 30 27 21 13 14 18 20 22 26 29 32 34 36 38 41 43 46 48 49 50 52 54 56 58 62 66 72 77 79 81 84 88 88 87 87 91 91 89 84 85
60 58 49 41 32 26 22 17 14 17 21 21 24 29 32 33 35 38 40 40 43 44 45 46 47 49 52 54 57 59 64 69 75 78 84 87 91 91 95 95 96 94 91
63 62 58 48 39 32 25 23 22 18 16 23 26 27 27 28 32 37 39 40 41 42 42 41 44 45 47 50 52 54 58 61 64 70 75 84 89 93 96 98 99 98 93
65 64 59 54 48 40 37 31 26 25 25 21 20 24 26 26 27 29 32 34 38 41 40 41 42 44 46 50 51 51 55 58 60 62 67 72 81 89 94 99 101 100 101
69 65 63 60 54 47 39 37 36 31 28 29 29 25 22 23 24 24 23 28 31 32 35 38 39 40 43 47 49 50 55 57 56 56 62 67 71 80 92 97 100 102 102
68 68 66 65 61 55 45 37 34 35 33 30 30 31 28 25 22 23 25 26 28 28 29 29 30 33 38 41 41 44 49 53 55 55 56 59 65 71 78 89 97 101 102
65 66 68 68 66 64 58 45 37 32 33 34 31 31 31 31 29 25 24 25 26 26 27 27 27 30 34 36 36 41 46 45 45 47 53 58 61 65 72 77 87 95 99
69 69 69 69 68 69 68 59 47 37 32 30 32 32 31 31 32 31 29 25 25 24 23 25 26 28 33 34 34 35 34 33 35 38 45 52 57 60 65 71 75 84 91
67 67 70 74 71 71 71 67 58 44 37 32 31 31 32 31 33 34 35 34 31 29 28 26 27 28 30 31 28 30 29 26 26 30 38 45 54 58 61 63 67 72 82
70 71 74 80 77 74 76 69 61 56 41 37 33 32 31 33 31 31 35 36 36 34 34 32 30 29 30 29 25 25 27 26 26 27 33 37 43 48 53 52 57 64 71
77 77 79 79 79 79 73 67 65 59 50 42 35 34 34 31 33 31 29 34 37 36 34 33 32 31 31 30 28 22 23 23 25 28 29 30 33 40 41 44 48 56 63
81 82 82 81 81 79 71 66 69 61 53 48 37 34 33 33 31 32 31 30 32 36 35 33 33 32 33 31 29 29 23 23 25 23 22 25 27 31 34 42 46 52 55
88 90 85 84 82 79 70 63 66 60 56 52 43 36 34 33 32 32 32 32 31 30 32 32 31 32 33 33 31 30 30 27 27 28 30 27 25 29 33 39 42 47 49
93 95 92 86 81 78 68 62 66 58 58 55 50 41 35 34 33 31 32 32 32 32 32 31 31 30 31 33 33 32 32 32 32 30 33 34 32 33 33 34 36 41 44
98 99 94 86 78 76 67 62 63 59 58 58 53 47 41 34 36 33 30 31 33 31 31 34 34 33 31 31 33 35 34 35 37 39 39 39 41 40 40 40 42 44 46
98 90 83 78 73 70 66 64 61 60 59 62 57 51 48 38 37 37 32 31 31 31 30 31 32 34 36 35 34 34 36 38 39 40 42 45 47 49 50 51 52 52 53
89 85 80 76 70 67 66 66 64 61 59 60 59 57 52 45 39 39 38 35 32 32 30 30 29 31 32 33 35 36 37 37 38 40 43 46 48 50 52 55 56 58 62
Wind_Direction
240 244 241 239 236 236 239 243 244 245 249 250 252 252 249 250 251 253 254 255 254 254 254 254 253 251 249 248 247 244 246 247 249 247 253 258 258 259 259 257 256 259 263
238 239 243 244 242 238 235 236 241 243 245 248 249 251 252 253 253 253 254 255 256 256 255 254 254 255 254 251 250 247 245 245 248 248 248 251 255 257 257 257 257 257 261
246 246 241 242 243 236 237 237 238 241 244 247 250 252 253 257 257 257 257 256 258 259 258 256 255 256 255 254 251 250 247 245 244 246 245 245 248 250 253 257 258 258 259
237 240 237 237 241 240 239 239 241 243 244 246 248 250 252 253 255 257 258 258 258 257 256 254 254 256 256 255 253 249 247 246 243 243 243 241 241 246 248 253 258 261 259
243 242 239 236 241 246 244 242 243 245 248 250 250 252 255 257 260 259 260 259 258 258 259 258 257 254 254 254 250 250 247 246 245 239 240 238 236 241 244 249 253 259 260
327 276 250 242 242 245 247 249 252 253 254 255 256 257 256 257 259 262 264 263 262 262 261 258 257 255 252 251 251 248 247 246 244 243 239 239 237 238 239 237 242 248 254
44 32 335 289 266 246 242 245 247 248 249 252 256 259 261 261 262 262 263 264 263 260 259 258 255 254 253 251 250 251 249 247 244 243 242 240 239 238 236 237 239 246 248
34 21 19 14 316 286 271 263 259 259 259 260 260 262 263 262 263 263 263 262 263 262 260 257 256 255 254 254 252 251 251 249 246 245 244 242 241 238 235 237 238 240 245
27 27 26 19 348 309 290 279 268 264 264 263 261 260 260 261 262 263 263 262 260 259 257 257 256 255 254 255 253 251 250 249 246 245 245 241 240 239 237 235 237 238 240
20 16 15 13 9 1 333 298 282 276 273 267 266 267 266 265 264 263 263 262 262 262 261 261 261 260 258 256 255 253 251 249 247 243 244 244 240 237 236 235 233 234 237
16 16 9 2 360 355 345 337 304 290 284 270 265 264 262 262 263 267 268 268 267 265 264 261 260 259 258 258 256 253 251 251 250 248 244 243 243 238 235 233 232 231 234
7 7 7 3 351 349 346 336 323 321 303 287 279 274 272 271 271 271 269 265 264 264 264 262 263 262 261 261 261 259 256 253 252 250 246 244 242 241 238 235 233 232 229
0 360 359 359 358 345 339 333 327 317 309 304 304 295 281 270 270 272 269 269 270 267 267 265 264 263 264 263 261 260 259 257 254 250 247 246 244 241 240 237 235 233 232
351 351 353 353 351 350 338 328 324 320 312 305 298 295 297 290 286 281 275 277 277 282 275 277 274 270 269 269 268 265 262 260 259 255 252 248 245 242 240 238 237 234 234
344 344 343 345 347 344 340 327 316 312 310 307 301 295 292 292 291 289 286 279 282 286 286 287 281 280 279 278 276 273 269 265 263 259 254 252 248 246 244 242 239 238 234
338 337 336 336 338 338 335 328 316 305 304 303 301 296 293 290 290 290 288 285 285 287 287 285 284 287 285 282 282 281 278 275 264 256 251 247 245 243 243 243 241 240 236
329 329 329 330 329 332 330 326 319 306 298 294 294 296 294 289 286 284 283 282 285 287 289 289 286 286 288 287 287 285 277 276 266 256 247 242 241 242 243 242 242 241 238
320 321 321 323 323 323 322 322 316 308 300 294 290 287 288 288 286 283 279 277 278 281 285 286 284 287 289 289 296 293 289 292 275 256 248 247 243 241 241 242 242 241 240
315 314 317 317 317 318 317 313 313 307 297 294 291 286 284 280 281 282 280 278 274 274 279 283 283 286 287 290 291 300 298 296 283 272 257 252 247 245 245 244 242 239 239
308 311 313 313 312 313 309 305 309 300 297 289 292 291 284 284 279 278 283 281 279 275 275 277 279 281 281 283 288 289 292 304 281 274 266 256 250 247 245 244 243 244 239
303 305 305 305 305 307 304 299 303 294 292 285 285 287 287 284 282 276 274 279 281 280 274 274 274 274 275 276 280 281 279 282 280 280 276 270 256 246 248 246 243 243 245
298 300 300 301 300 300 296 291 293 288 284 280 278 279 284 284 281 282 276 273 275 278 280 274 268 267 269 270 270 272 276 274 275 276 278 272 272 269 260 256 254 251 246
295 297 297 296 295 293 288 284 285 281 278 276 274 272 273 282 279 279 281 279 274 274 275 276 274 270 268 269 271 270 268 270 269 268 269 271 275 275 271 268 264 264 265
296 295 294 291 289 286 283 277 278 275 274 270 269 267 265 268 278 277 277 280 278 275 273 273 272 271 267 266 267 267 268 266 262 263 265 266 267 268 267 266 266 267 268
292 290 289 288 285 281 277 270 270 269 268 267 266 261 261 257 268 274 275 278 274 272 272 270 272 273 273 270 266 262 261 260 261 261 261 261 263 263 265 264 265 266 265
287 286 286 284 280 276 271 265 264 263 267 266 267 262 257 253 256 265 270 275 279 278 273 268 268 267 269 270 270 269 268 266 265 263 263 264 265 265 263 262 263 263 264